FFT1234 KILG-KISP

Flight info

Callsign FFT1234
Flight time 0h 34m
Altitude 17000
Route DITCH T416 DRIFT T320 SARDI CCC
Aircraft A320/M-SDE3FGHIRWY/LB1

Departure

Time 2026-04-22 00:12
Airport Wilmington Airport (KILG)

Arrival

Time 2026-04-22 00:47
Airport Long Island MacArthur Airport (KISP)
Time Latitude Longitude Altitude Speed Heading
2026-04-22 00:01 39.67524 -75.59846 89 ft 0 kts 221°
2026-04-22 00:05 39.67527 -75.59842 86 ft 2 kts 221°
2026-04-22 00:05 39.67540 -75.59828 88 ft 2 kts 221°
2026-04-22 00:05 39.67552 -75.59813 90 ft 2 kts 221°
2026-04-22 00:06 39.67565 -75.59799 86 ft 2 kts 221°
2026-04-22 00:06 39.67569 -75.59794 86 ft 0 kts 221°
2026-04-22 00:07 39.67569 -75.59798 86 ft 1 kts 255°
2026-04-22 00:07 39.67579 -75.59822 85 ft 4 kts 301°
2026-04-22 00:07 39.67600 -75.59858 89 ft 5 kts 307°
2026-04-22 00:08 39.67623 -75.59896 90 ft 8 kts 306°
2026-04-22 00:08 39.67650 -75.59956 89 ft 7 kts 307°
2026-04-22 00:08 39.67686 -75.60011 85 ft 11 kts 310°
2026-04-22 00:08 39.67728 -75.60097 86 ft 11 kts 281°
2026-04-22 00:09 39.67771 -75.60160 88 ft 10 kts 347°
2026-04-22 00:09 39.67835 -75.60157 87 ft 9 kts
2026-04-22 00:09 39.67911 -75.60146 85 ft 18 kts
2026-04-22 00:09 39.68050 -75.60128 82 ft 20 kts
2026-04-22 00:10 39.68187 -75.60113 73 ft 20 kts
2026-04-22 00:10 39.68326 -75.60098 73 ft 20 kts
2026-04-22 00:10 39.68462 -75.60082 69 ft 19 kts
2026-04-22 00:10 39.68598 -75.60066 70 ft 20 kts
2026-04-22 00:11 39.68731 -75.60051 68 ft 18 kts
2026-04-22 00:11 39.68802 -75.60055 64 ft 8 kts 333°
2026-04-22 00:11 39.68821 -75.60110 69 ft 7 kts 270°
2026-04-22 00:11 39.68756 -75.60173 66 ft 18 kts 191°
2026-04-22 00:12 39.68520 -75.60200 67 ft 65 kts 185°
2026-04-22 00:12 39.67851 -75.60276 89 ft 125 kts 185°
2026-04-22 00:12 39.66901 -75.60399 542 ft 136 kts 184°
2026-04-22 00:12 39.65977 -75.60544 1319 ft 133 kts 186°
2026-04-22 00:13 39.65060 -75.60650 1960 ft 140 kts 185°
2026-04-22 00:13 39.64049 -75.60382 2290 ft 165 kts 149°
2026-04-22 00:13 39.63442 -75.59018 2618 ft 196 kts 100°
2026-04-22 00:13 39.63550 -75.57149 2933 ft 221 kts 82°
2026-04-22 00:14 39.63927 -75.55115 3324 ft 244 kts 77°
2026-04-22 00:14 39.64409 -75.52881 3850 ft 267 kts 75°
2026-04-22 00:14 39.64926 -75.50510 4659 ft 278 kts 74°
2026-04-22 00:14 39.65443 -75.48061 5558 ft 285 kts 73°
2026-04-22 00:15 39.65951 -75.45547 6463 ft 291 kts 72°
2026-04-22 00:15 39.66454 -75.42974 7342 ft 297 kts 71°
2026-04-22 00:15 39.66951 -75.40352 8276 ft 300 kts 71°
2026-04-22 00:15 39.67439 -75.37708 9243 ft 303 kts 70°
2026-04-22 00:16 39.67920 -75.35074 10178 ft 305 kts 70°
2026-04-22 00:16 39.68421 -75.32334 10698 ft 323 kts 70°
2026-04-22 00:16 39.68976 -75.29353 10990 ft 347 kts 70°
2026-04-22 00:16 39.69558 -75.26247 11320 ft 367 kts 71°
2026-04-22 00:17 39.70161 -75.22995 11978 ft 374 kts 71°
2026-04-22 00:17 39.70765 -75.19677 12736 ft 379 kts 71°
2026-04-22 00:17 39.71370 -75.16321 13495 ft 384 kts 71°
2026-04-22 00:17 39.71981 -75.12919 14232 ft 388 kts 72°
2026-04-22 00:18 39.72597 -75.09485 14889 ft 393 kts 71°
2026-04-22 00:18 39.73221 -75.06012 15543 ft 397 kts 71°
2026-04-22 00:18 39.73852 -75.02507 16188 ft 401 kts 71°
2026-04-22 00:18 39.74497 -74.98939 16835 ft 406 kts 71°
2026-04-22 00:19 39.75148 -74.95356 17202 ft 409 kts 71°
2026-04-22 00:19 39.75809 -74.91719 17295 ft 420 kts 71°
2026-04-22 00:19 39.76499 -74.87939 17299 ft 438 kts 71°
2026-04-22 00:19 39.77191 -74.84101 17302 ft 443 kts 72°
2026-04-22 00:20 39.77875 -74.80251 17296 ft 445 kts 72°
2026-04-22 00:20 39.78564 -74.76337 17287 ft 445 kts 72°
2026-04-22 00:20 39.79247 -74.72413 17301 ft 446 kts 73°
2026-04-22 00:20 39.79665 -74.68391 17299 ft 449 kts 79°
2026-04-22 00:21 39.79995 -74.64356 17300 ft 449 kts 79°
2026-04-22 00:21 39.80326 -74.60314 17305 ft 449 kts 79°
2026-04-22 00:21 39.80657 -74.56272 17311 ft 449 kts 79°
2026-04-22 00:21 39.80988 -74.52232 17311 ft 449 kts 79°
2026-04-22 00:22 39.81212 -74.49503 17331 ft 449 kts 79°
2026-04-22 00:22 39.81547 -74.45462 17336 ft 449 kts 79°
2026-04-22 00:22 39.81742 -74.41401 17329 ft 453 kts 86°
2026-04-22 00:22 39.81731 -74.37300 17342 ft 453 kts 86°
2026-04-22 00:23 39.81722 -74.33201 17344 ft 453 kts 86°
2026-04-22 00:23 39.81718 -74.29151 17341 ft 453 kts 86°
2026-04-22 00:23 39.81716 -74.25051 17351 ft 453 kts 86°
2026-04-22 00:23 39.81711 -74.20953 17351 ft 453 kts 86°
2026-04-22 00:24 39.81703 -74.16812 17354 ft 457 kts 86°
2026-04-22 00:24 39.81692 -74.12673 17367 ft 457 kts 86°
2026-04-22 00:24 39.81681 -74.08548 17370 ft 456 kts 86°
2026-04-22 00:24 39.81669 -74.04417 17371 ft 455 kts 86°
2026-04-22 00:25 39.81656 -74.00303 17363 ft 454 kts 86°
2026-04-22 00:25 39.81642 -73.96252 17363 ft 454 kts 86°
2026-04-22 00:25 39.81625 -73.92139 17367 ft 454 kts 86°
2026-04-22 00:25 39.81605 -73.88030 17366 ft 454 kts 86°
2026-04-22 00:26 39.81584 -73.83929 17368 ft 454 kts 86°
2026-04-22 00:26 39.81561 -73.79820 17366 ft 454 kts 86°
2026-04-22 00:26 39.81554 -73.75715 17368 ft 453 kts 84°
2026-04-22 00:26 39.81913 -73.71680 17367 ft 446 kts 73°
2026-04-22 00:27 39.82784 -73.67846 17363 ft 439 kts 63°
2026-04-22 00:27 39.84110 -73.64311 17371 ft 431 kts 53°
2026-04-22 00:27 39.85823 -73.61153 17371 ft 424 kts 44°
2026-04-22 00:27 39.87697 -73.58181 17370 ft 424 kts 44°
2026-04-22 00:28 39.89572 -73.55218 17371 ft 423 kts 43°
2026-04-22 00:28 39.91611 -73.52526 17241 ft 409 kts 36°
2026-04-22 00:28 39.93685 -73.50065 16980 ft 399 kts 36°
2026-04-22 00:28 39.95736 -73.47642 16727 ft 396 kts 36°
2026-04-22 00:29 39.97776 -73.45239 16473 ft 394 kts 36°
2026-04-22 00:29 39.99811 -73.42847 16219 ft 393 kts 35°
2026-04-22 00:29 40.01833 -73.40463 15959 ft 391 kts 36°
2026-04-22 00:29 40.03820 -73.38107 15725 ft 390 kts 36°
2026-04-22 00:30 40.05823 -73.35722 15491 ft 389 kts 36°
2026-04-22 00:30 40.07818 -73.33348 15233 ft 387 kts 36°
2026-04-22 00:30 40.09804 -73.30991 14991 ft 386 kts 36°
2026-04-22 00:30 40.11790 -73.28635 14751 ft 384 kts 36°
2026-04-22 00:31 40.13766 -73.26289 14511 ft 383 kts 36°
2026-04-22 00:31 40.15736 -73.23945 14273 ft 382 kts 36°
2026-04-22 00:31 40.17696 -73.21611 14021 ft 380 kts 36°
2026-04-22 00:31 40.19644 -73.19288 13670 ft 375 kts 36°
2026-04-22 00:32 40.21564 -73.16989 13115 ft 371 kts 36°
2026-04-22 00:32 40.23452 -73.14721 12528 ft 367 kts 36°
2026-04-22 00:32 40.25297 -73.12500 11975 ft 363 kts 36°
2026-04-22 00:32 40.27171 -73.10248 11371 ft 360 kts 36°
2026-04-22 00:33 40.28980 -73.08078 10980 ft 351 kts 36°
2026-04-22 00:33 40.30754 -73.05937 10847 ft 332 kts 36°
2026-04-22 00:33 40.32360 -73.03988 10726 ft 305 kts 35°
2026-04-22 00:33 40.33871 -73.02157 10435 ft 288 kts 34°
2026-04-22 00:34 40.35339 -73.00399 10068 ft 284 kts 34°
2026-04-22 00:34 40.36791 -72.98669 9888 ft 280 kts 34°
2026-04-22 00:34 40.38232 -72.96957 9756 ft 279 kts 35°
2026-04-22 00:34 40.39668 -72.95244 9617 ft 279 kts 35°
2026-04-22 00:35 40.41102 -72.93528 9497 ft 279 kts 35°
2026-04-22 00:35 40.42530 -72.91815 9359 ft 278 kts 36°
2026-04-22 00:35 40.43956 -72.90102 9218 ft 278 kts 36°
2026-04-22 00:35 40.45380 -72.88381 8880 ft 277 kts 36°
2026-04-22 00:36 40.46789 -72.86675 8502 ft 275 kts 37°
2026-04-22 00:36 40.48199 -72.84973 8120 ft 274 kts 37°
2026-04-22 00:36 40.49599 -72.83283 7736 ft 273 kts 37°
2026-04-22 00:36 40.51087 -72.81844 7364 ft 266 kts 23°
2026-04-22 00:37 40.52795 -72.81019 7066 ft 257 kts
2026-04-22 00:37 40.54565 -72.80841 7036 ft 256 kts 354°
2026-04-22 00:37 40.56314 -72.81253 6865 ft 255 kts 343°
2026-04-22 00:37 40.58028 -72.81862 6651 ft 255 kts 343°
2026-04-22 00:38 40.59740 -72.82469 6400 ft 255 kts 343°
2026-04-22 00:38 40.61450 -72.83076 6178 ft 255 kts 343°
2026-04-22 00:38 40.63165 -72.83685 5937 ft 255 kts 343°
2026-04-22 00:38 40.64884 -72.84295 5687 ft 255 kts 343°
2026-04-22 00:39 40.66597 -72.84905 5470 ft 254 kts 342°
2026-04-22 00:39 40.68276 -72.85499 5236 ft 245 kts 342°
2026-04-22 00:39 40.69899 -72.86072 4981 ft 238 kts 342°
2026-04-22 00:39 40.71464 -72.86627 4689 ft 233 kts 342°
2026-04-22 00:40 40.73020 -72.87178 4400 ft 229 kts 342°
2026-04-22 00:40 40.74547 -72.87717 4142 ft 225 kts 342°
2026-04-22 00:40 40.76049 -72.88250 3876 ft 223 kts 342°
2026-04-22 00:40 40.77539 -72.88780 3623 ft 221 kts 342°
2026-04-22 00:41 40.79020 -72.89308 3353 ft 219 kts 342°
2026-04-22 00:41 40.80474 -72.89826 3093 ft 218 kts 342°
2026-04-22 00:41 40.81934 -72.90348 2826 ft 217 kts 342°
2026-04-22 00:41 40.83392 -72.90869 2634 ft 216 kts 342°
2026-04-22 00:42 40.84841 -72.91386 2422 ft 215 kts 343°
2026-04-22 00:42 40.86281 -72.91900 2209 ft 214 kts 343°
2026-04-22 00:42 40.87707 -72.92406 2069 ft 209 kts 343°
2026-04-22 00:42 40.88983 -72.93211 2045 ft 201 kts 315°
2026-04-22 00:43 40.89702 -72.94727 2031 ft 193 kts 281°
2026-04-22 00:43 40.89687 -72.96444 2023 ft 183 kts 249°
2026-04-22 00:43 40.89050 -72.97819 2029 ft 173 kts 223°
2026-04-22 00:43 40.88202 -72.98938 2033 ft 172 kts 222°
2026-04-22 00:44 40.87373 -73.00029 2014 ft 167 kts 222°
2026-04-22 00:44 40.86567 -73.01093 1889 ft 157 kts 221°
2026-04-22 00:44 40.85849 -73.02043 1727 ft 137 kts 220°
2026-04-22 00:44 40.85194 -73.02906 1547 ft 130 kts 221°
2026-04-22 00:45 40.84562 -73.03739 1378 ft 126 kts 220°
2026-04-22 00:45 40.83939 -73.04557 1198 ft 127 kts 220°
2026-04-22 00:45 40.83314 -73.05372 1015 ft 125 kts 220°
2026-04-22 00:45 40.82709 -73.06161 794 ft 126 kts 220°
2026-04-22 00:46 40.82099 -73.06998 612 ft 127 kts 221°
2026-04-22 00:46 40.81473 -73.07821 424 ft 126 kts 222°
2026-04-22 00:46 40.80849 -73.08637 278 ft 126 kts 219°
2026-04-22 00:46 40.80226 -73.09447 151 ft 126 kts 220°
2026-04-22 00:47 40.79643 -73.10220 100 ft 110 kts 221°
2026-04-22 00:47 40.79273 -73.10708 99 ft 33 kts 225°
2026-04-22 00:47 40.79221 -73.10778 99 ft 9 kts 225°
2026-04-22 00:47 40.79153 -73.10867 98 ft 16 kts 224°
2026-04-22 00:48 40.79062 -73.10950 98 ft 15 kts 179°
2026-04-22 00:48 40.79019 -73.10915 97 ft 0 kts 136°
2026-04-22 00:48 40.79014 -73.10908 96 ft 4 kts 135°
2026-04-22 00:49 40.79017 -73.10842 96 ft 8 kts 52°
2026-04-22 00:49 40.79065 -73.10777 95 ft 16 kts 45°
2026-04-22 00:49 40.79112 -73.10678 95 ft 12 kts 84°
2026-04-22 00:49 40.79112 -73.10512 95 ft 22 kts 90°
2026-04-22 00:50 40.79112 -73.10301 95 ft 24 kts 90°
2026-04-22 00:50 40.79112 -73.10070 95 ft 26 kts 90°
2026-04-22 00:50 40.79111 -73.09822 95 ft 28 kts 90°
2026-04-22 00:50 40.79105 -73.09638 95 ft 12 kts 116°
2026-04-22 00:51 40.79041 -73.09621 95 ft 3 kts 180°
2026-04-22 00:51 40.79038 -73.09621 95 ft 0 kts 180°